Location: ????
(55.5675°N, 37.6272°E)
Time: 07:57:59
(UTC+00:00)

Cosmos 1634 Rocket - Pass Details

Date: 14 April 2026
Orbit: 959 x 991 km, 82.9° (Epoch: 13 May)

Event Time Altitude Azimuth Distance (km) Brightness Sun altitude
Exits shadow 23:24:33 24° 164° (SSE) 1,899 5.1 -20.5°
Maximum altitude 23:28:18 59° 93° (E) 1,111 4.4 -20.2°
Drops below altitude 10° 23:34:21 10° 17° (NNE) 2,708 7.4 -19.8°
Sets 23:36:53 0° 13° (NNE) 3,657 8.3 -19.6°
